EHI
0 0 0 0 0 0 0 0 0 0 0 0 0 0 0 0 0 0 0 0 0 0 0 0 0 0 0 0 0 0 0 0 0 0 0 0 0 0 0 0 0 0 0
0 0 0 0 0 0 0 0 0 0 0 0 0 0 0 0 0 0 0 0 0 0 0 0 0 0 0 0 0 0 0 0 0 0 0 0 0 0 0 0 0 0 0
0 0 0 0 0 0 0 0 0 0 0 0 0 0 0 0 0 0 0 0 0 0 0 0 0 0 0 0 0 0 0 0 0 0 0 0 0 0 0 0 0 0 0
0 0 0 0 0 0 0 0 0 0 0 0 0 0 0 0 0 0 0 0 0 0 0 0 0 0 0 0 0 0 0 0 0 0 0 0 0 0 0 0 0 0 0
0 0 0 0 0 0 0 0 0 0 0 0 0 0 0 0 0 0 0 0 0 0 0 0 0 0 0 0 0 0 0 0 0 0 0 0 0 0 0 0 0 0 0
0 0 0 0 0 0 0 0 0 0 0 0 0 0 0 0 0 0 0 0 0 0 0 0 0 0 0 0 0 0 0 0 0 0 0 0 0 0 0 0 0 0 0
0 0 0 0 0 0 0 0 0 0 0 0 0 0 0 0 0 0 0 0 0 0 0 0 0 0 0 0 0 0 0 0 0 0 0 0 0 0 0 0 0 0 0
0 0 0 0 0 0 0 0 0 0 0 0 0 0 0 0 0 0 0 0 0 0 0 0 0 0 0 0 0 0 0 0 0 0 0 0 0 0 0 0 0 0 0
0 0 0 0 0 0 0 0 0 0 0 0 0 0 0 0 0 0 0 0 0 0 0 0 0 0 0 0 0 0 0 0 0 0 0 0 0 0 0 0 0 0 0
0 0 0 0 0 0 0 0 0 0 0 0 0 0 0 0 0 0 0 0 0 0 0 0 0 0 0 0 0 0 0 0 0 0 0 0 0 0 0 0 0 0 0
0 0 0 0 0 0 0 0 0 0 0 0 0 0 0 0 0 0 0 0 0 0 0 0 0 0 0 0 0 0 0 0 0 0 0 0 0 0 0 0 0 0 0
1 0 0 0 0 0 0 0 0 0 0 0 0 0 0 0 0 0 0 0 0 0 0 0 0 0 0 0 0 0 0 0 0 0 0 0 0 0 0 0 0 0 0
2 1 0 0 0 0 0 0 0 0 0 0 0 0 0 0 0 0 0 0 0 0 0 0 0 0 0 0 0 0 0 0 0 0 0 0 0 0 0 0 0 0 0
2 1 0 0 0 0 0 0 0 0 0 0 0 0 0 0 0 0 0 0 0 0 0 0 0 0 0 0 0 0 0 0 0 0 0 0 0 0 0 0 0 0 0
1 1 0 0 0 0 0 0 0 0 0 0 0 0 0 0 0 0 0 0 0 0 0 0 0 0 0 0 0 0 0 0 0 0 0 0 0 0 0 0 0 0 0
0 0 0 0 0 0 0 0 0 0 0 0 0 0 0 0 0 0 0 0 0 0 0 0 0 0 0 0 0 0 0 0 0 0 0 0 0 0 0 0 0 0 0
1 1 0 0 0 0 0 0 0 0 0 0 0 0 0 0 0 0 0 0 0 0 0 0 0 0 0 0 0 0 0 0 0 0 0 0 0 0 0 0 0 0 0
0 0 0 0 0 0 0 0 0 0 0 0 0 0 0 0 0 0 0 0 0 0 0 0 0 0 0 0 0 0 0 0 0 0 0 0 0 0 0 0 0 0 0
0 0 0 0 0 0 0 0 0 0 0 0 0 0 0 0 0 0 0 0 0 0 0 0 0 0 0 0 0 0 0 0 0 0 0 0 0 0 0 0 0 0 0
0 0 0 0 0 0 0 0 0 0 0 0 0 0 0 0 0 0 0 0 0 0 0 0 0 0 0 0 0 0 0 0 0 0 0 0 0 0 0 0 0 0 0
0 0 0 0 0 0 0 0 0 0 0 0 0 0 0 0 0 0 0 0 0 0 0 0 0 0 0 0 0 0 0 0 0 0 0 0 0 0 0 0 0 0 0
0 0 0 0 0 0 0 0 0 0 0 0 0 0 0 0 0 0 0 0 0 0 0 0 0 0 0 0 0 0 0 0 0 0 0 0 0 0 0 0 0 0 0
0 0 0 0 0 0 0 0 0 0 0 0 0 0 0 0 0 0 0 0 0 0 0 0 0 0 0 0 0 0 0 0 0 0 0 0 0 0 0 0 0 0 0
0 0 0 0 0 0 0 0 0 0 0 0 0 0 0 0 0 0 0 0 0 0 0 0 0 0 0 0 0 0 0 0 0 0 0 0 0 0 0 0 0 0 0
0 0 0 0 0 0 0 0 0 0 0 0 0 0 0 0 0 0 0 0 0 0 0 0 0 0 0 0 0 0 0 0 0 0 0 0 0 0 0 0 0 0 0
0 0 0 0 0 0 0 0 0 0 0 0 0 0 0 0 0 0 0 0 0 0 0 0 0 0 0 0 0 0 0 0 0 0 0 0 0 0 0 0 0 0 0
Wind_Speed
5 5 5 6 6 5 6 6 6 6 6 6 6 6 5 4 3 4 4 10 10 10 10 10 9 8 8 6 6 5 4 4 3 3 2 2 2 2 2 3 3 3 4
5 5 6 6 6 5 5 6 6 6 5 4 5 5 5 4 4 4 5 6 9 10 11 11 10 9 8 8 7 6 6 5 4 4 4 3 3 2 3 3 3 4 4
6 5 5 5 6 6 6 5 5 4 4 4 4 4 3 4 4 5 6 5 5 8 10 11 11 10 9 9 8 7 6 6 5 5 5 4 3 3 3 3 4 4 4
5 5 5 5 5 5 5 5 4 4 3 3 3 3 3 3 4 5 5 6 5 5 7 10 10 10 10 10 9 8 7 6 6 6 5 5 5 4 4 4 4 4 4
5 5 5 5 6 5 5 5 4 4 4 4 3 3 3 3 3 4 4 6 6 6 5 7 9 9 9 10 9 9 8 7 6 6 7 7 6 6 5 5 4 4 5
4 4 4 5 5 5 5 5 5 4 4 4 3 3 3 3 3 3 4 4 5 6 6 6 5 6 8 8 9 9 9 8 8 7 7 7 7 7 7 6 5 5 5
4 4 4 5 5 5 6 6 5 5 4 4 3 2 2 3 4 4 3 3 4 5 5 6 5 4 4 8 9 9 10 9 8 8 8 8 7 7 7 7 6 6 6
5 4 4 4 5 5 6 6 5 4 4 5 4 3 1 2 3 4 4 4 5 4 5 6 6 6 5 4 6 9 9 10 11 9 8 8 8 8 8 8 8 7 6
4 4 5 5 5 5 6 6 6 6 5 4 4 4 4 4 2 3 5 5 4 4 4 4 6 6 6 5 5 8 9 10 11 11 10 10 10 9 10 9 8 7 6
4 4 4 5 5 4 5 5 5 5 5 5 4 3 3 2 3 2 2 4 5 5 6 5 5 6 6 5 6 9 11 11 12 13 12 11 11 10 10 9 8 8 7
3 4 4 4 4 4 5 5 5 5 5 5 4 3 3 2 2 3 3 3 3 4 5 6 5 5 6 6 5 8 11 12 14 14 13 12 11 10 10 9 8 8 7
2 3 3 3 4 4 5 5 6 6 5 6 4 4 4 3 3 3 4 4 4 4 5 5 5 5 5 6 7 10 11 12 13 14 13 12 11 10 10 9 8 7 7
2 3 4 3 3 4 4 4 5 5 6 6 6 5 5 5 3 3 3 3 4 3 3 4 5 5 5 4 5 10 10 11 12 13 13 12 10 9 9 9 8 8 7
2 3 4 4 4 4 4 4 4 5 5 6 7 6 5 5 5 4 4 3 3 3 4 5 4 5 5 5 6 9 8 12 12 13 13 12 10 8 8 8 8 8 7
2 2 3 3 4 4 4 5 4 5 5 6 6 7 6 5 5 5 4 4 5 6 7 5 4 5 5 5 7 7 7 11 13 13 13 11 10 9 9 8 8 8 7
2 2 3 3 3 3 4 4 4 5 6 5 5 6 6 5 5 5 5 5 5 6 7 5 4 4 5 5 8 7 8 12 13 14 13 12 11 10 10 9 8 8 8
2 3 3 3 3 3 4 4 5 5 6 6 6 7 7 6 5 6 6 6 6 5 7 5 3 3 6 7 6 6 6 7 8 13 14 13 13 12 11 10 10 9 9
2 2 2 2 3 3 3 4 4 5 6 6 6 6 7 6 7 6 6 7 7 6 6 7 4 3 5 7 7 6 5 6 6 11 14 14 14 13 12 11 11 10 9
2 2 2 2 2 2 3 3 4 4 5 5 6 6 6 6 7 5 6 6 5 5 5 5 5 3 3 4 5 5 5 5 5 8 13 13 13 13 13 13 12 11 9
3 2 2 1 1 2 2 3 3 4 4 5 5 6 6 6 7 7 6 6 6 6 5 5 4 4 3 4 4 5 5 5 5 5 8 9 11 13 14 14 12 11 10
4 4 3 3 2 2 2 2 3 4 5 5 5 5 6 7 8 8 6 6 6 6 6 6 6 4 5 4 6 4 6 4 5 5 5 6 6 7 8 11 12 12 11
4 4 3 3 3 3 5 5 4 4 4 5 5 5 5 6 8 9 11 11 10 9 8 7 7 8 8 7 5 5 5 5 6 5 6 6 6 7 6 6 11 13 12
4 4 4 4 3 4 6 6 6 4 3 4 4 5 5 5 7 7 9 10 11 13 13 10 9 9 8 7 7 8 7 7 6 5 5 6 5 7 5 7 13 14 13
4 4 4 4 4 5 7 7 7 4 3 4 4 4 5 6 6 7 7 7 8 8 9 9 9 9 9 8 9 9 9 5 2 3 5 5 4 4 4 5 11 13 13
4 4 4 4 4 5 8 8 7 3 3 4 5 5 5 6 8 8 6 7 8 7 8 9 10 10 10 10 8 5 5 5 4 4 3 3 3 2 2 3 7 12 12
4 4 4 4 4 5 8 9 8 3 4 5 5 5 7 8 9 9 6 6 8 7 5 6 7 8 7 8 10 9 7 6 4 4 4 4 3 3 2 2 3 5 6
Wind_Direction
177 173 171 169 174 175 177 175 186 192 197 196 195 197 202 200 179 148 157 174 177 185 188 192 195 200 200 203 206 203 207 213 222 229 233 247 285 301 323 331 342 349 354
175 174 176 173 175 176 179 181 192 193 195 191 198 196 193 190 184 159 157 178 183 187 194 201 204 206 206 211 213 214 217 222 228 235 240 250 271 280 303 310 313 321 334
178 175 178 178 178 176 178 183 194 192 192 188 195 198 194 193 187 171 164 173 184 194 198 206 208 209 211 215 218 220 225 228 232 237 240 244 257 262 281 295 302 312 320
181 178 178 183 181 174 177 183 188 184 187 182 186 196 200 196 196 186 176 176 179 188 200 206 207 211 215 219 221 223 226 228 229 233 238 245 250 253 272 281 282 292 304
188 183 184 186 181 176 179 186 185 177 180 178 183 192 197 200 205 204 194 186 183 180 184 200 203 208 213 219 223 225 226 227 230 235 241 247 249 252 261 266 274 283 294
186 186 187 191 183 179 182 183 183 180 178 174 186 197 202 208 206 209 210 192 182 181 180 184 191 207 210 213 223 229 229 230 232 237 243 249 252 252 259 263 271 280 287
182 182 190 191 191 190 188 187 181 181 181 168 167 196 221 215 214 209 206 196 191 188 184 184 187 191 202 212 216 226 232 231 233 237 243 249 251 252 257 262 267 272 276
186 188 192 196 199 193 188 187 179 181 186 175 165 160 200 239 233 219 212 206 198 191 199 199 193 192 190 195 213 219 230 233 234 236 241 246 254 255 255 261 264 266 269
191 188 199 201 203 197 195 190 184 181 186 188 179 171 177 205 208 223 216 209 203 196 201 205 205 199 195 193 198 212 220 228 232 235 240 246 251 256 260 261 260 263 263
193 191 201 204 206 199 192 192 189 187 182 190 199 206 199 170 171 211 230 218 212 209 205 209 209 209 204 198 201 204 210 220 230 236 241 245 248 253 261 259 256 261 264
199 196 197 196 205 201 193 191 192 192 192 195 198 200 215 228 201 189 222 227 231 220 211 208 206 207 206 203 200 204 205 214 226 234 239 243 247 253 257 254 256 259 262
204 204 205 201 208 205 199 196 195 196 201 204 206 203 196 201 207 206 216 218 230 233 219 212 211 211 209 206 207 203 205 211 222 230 236 240 244 248 252 248 254 257 259
214 213 212 207 214 215 205 201 202 204 206 208 210 213 215 217 205 212 217 227 237 241 219 219 214 209 213 208 209 202 208 211 219 227 234 237 240 242 243 244 247 248 257
227 218 216 211 218 219 219 208 207 210 211 217 223 220 224 224 218 217 214 216 242 247 227 225 215 209 209 207 214 206 214 212 217 224 230 233 234 231 233 237 239 242 245
253 230 222 218 219 216 220 213 216 217 216 219 224 225 228 228 224 224 220 213 219 243 245 227 218 210 206 208 209 212 215 216 219 223 226 227 225 221 221 226 229 230 227
253 237 227 221 220 218 223 224 224 223 224 227 226 227 232 235 233 227 226 228 227 235 251 233 228 218 203 214 215 216 220 220 220 222 222 219 218 217 217 218 220 220 218
251 243 230 217 225 229 229 228 228 228 229 233 235 234 236 235 239 235 230 228 231 233 251 254 238 226 208 210 215 216 217 215 217 220 221 217 215 215 214 214 213 214 216
276 258 250 229 240 244 241 238 238 238 235 236 238 241 244 242 240 241 237 234 234 231 239 251 253 237 233 216 212 217 221 224 221 222 220 220 218 216 214 212 212 212 211
312 290 269 244 255 256 249 249 246 247 246 243 239 239 242 240 241 243 244 242 241 244 240 244 249 247 250 223 213 226 225 226 229 223 219 220 220 219 215 213 212 209 204
347 338 326 293 272 282 264 258 256 258 259 258 252 247 244 241 244 243 244 244 246 246 241 239 244 243 249 231 210 217 228 223 229 227 222 220 220 220 217 214 209 204 202
9 5 359 358 349 328 311 295 279 272 265 264 261 256 255 255 257 254 252 248 245 245 246 242 239 240 237 224 217 212 231 232 237 219 212 215 211 213 211 212 206 200 200
6 4 359 356 356 345 348 343 317 280 273 268 270 272 272 263 265 265 260 255 248 242 241 245 245 239 236 229 219 216 223 228 240 206 200 218 204 210 210 206 205 202 202
355 356 351 350 346 345 352 347 337 313 288 280 277 276 280 279 273 264 262 260 256 253 246 241 248 248 240 230 216 218 221 225 236 207 196 221 207 215 210 209 205 204 203
347 343 343 345 345 348 355 350 344 328 316 310 299 286 284 282 277 275 269 263 258 257 253 245 246 251 245 232 222 218 220 228 260 213 190 217 207 215 211 203 204 205 204
344 341 342 346 347 347 357 355 349 326 322 313 310 310 304 293 296 295 278 269 268 266 262 254 257 260 257 244 234 218 204 205 235 224 196 192 190 197 213 214 204 204 206
335 333 337 343 344 345 353 355 348 331 325 320 315 311 312 312 309 307 285 272 268 268 268 263 260 261 250 236 229 217 204 207 212 221 194 173 171 156 185 215 201 198 201